Regional Weather Roundup
Issued by NWS Wakefield, VA

Home | Current Version | Previous Version | Graphics & Text | Print | Product List | Glossary On
Versions: 1 2 3 4 5 6 7 8 9 10 11 12 13 14 15 16 17 18 19 20 21 22 23 24 25 26 27
000
ASUS41 KAKQ 251915
RWRAKQ

REGIONAL WEATHER ROUNDUP
NATIONAL WEATHER SERVICE WAKEFIELD VA
300 PM EDT SUN SEP 25 2016

Note: "fair" indicates few or no clouds below 12,000 feet with no
significant weather and/or obstructions to visibility. * = Denotes
station may not report precipitation (e.g., rain,snow,etc.),
thunder or fog.

VAZ042-051-052>054-056-252000-
NORTHERN VIRGINIA

CITY           SKY/WX    TMP DP  RH WIND       PRES   REMARKS
WASH NATIONAL  PTSUNNY   74  46  36 CALM      30.16F
DULLES         PTSUNNY   71  45  39 VRB6      30.16F
FORT BELVOIR   PTSUNNY   72  48  42 SW3       30.16F
QUANTICO         N/A     70  52  52 NW6       30.17F
FREDERICKSBRG* CLOUDY    68  55  64 CALM      30.17S
STAFFORD*      CLOUDY    66  53  64 N3        30.21F
WARRENTON      CLOUDY    67  43  41 CALM      30.18F
CULPEPER*      CLOUDY    65  51  61 CALM      30.19F
MANASSAS*      CLOUDY    70  48  46 CALM      30.18F
LEESBURG*      PTSUNNY   73  50  43 S7        30.17F
WINCHESTER     CLOUDY    68  48  49 SE5       30.17F
FRONT ROYAL*   CLOUDY    64  50  59 CALM      30.16F
LURAY*         CLOUDY    64  55  72 NE3       30.17F
$$

VAZ048-049-060>072-079>083-252000-
CENTRAL AND SOUTH CENTRAL VIRGINIA

CITY           SKY/WX    TMP DP  RH WIND       PRES   REMARKS
RICHMOND       CLOUDY    71  57  61 S3        30.15F
CHESTERFIELD*  CLOUDY    72  48  43 CALM      30.17F
PETERSBURG*    CLOUDY    73  59  61 E6        30.16S
HANOVER        CLOUDY    71  55  56 CALM      30.17F
TAPPAHANNOCK*  PTSUNNY   75  49  41 E6        30.17F
QUINTON*       CLOUDY    72  59  62 CALM      30.15F
CHARLOTTSVILLE CLOUDY    64  55  72 N5        30.18F
GORDONSVILLE*  CLOUDY    66  57  72 NE3       30.17F
ORANGE*          N/A     64  54  68 CALM      30.19F
LOUISA*        CLOUDY    72  61  68 N5        30.16F
BUMPASS*       CLOUDY    69  58  69 N5        30.17S
FARMVILLE*     CLOUDY    73  61  65 E5        30.14F
CREWE*         CLOUDY    70  62  75 CALM      30.16S
FORT PICKETT*  CLOUDY    71  60  68 NE5       30.15F
CHASE CITY*    CLOUDY    72  64  75 E5        30.14F
CLARKSVILLE*   CLOUDY    70  64  83 E3        30.15F
SOUTH HILL*    CLOUDY    72  63  74 E6        30.20F
LAWRENCEVILLE* CLOUDY    72  61  68 CALM      30.15S
EMPORIA*       CLOUDY    72  55  56 E3        30.16F
$$

VAZ088>098-252000-
SOUTHEAST VIRGINIA

CITY           SKY/WX    TMP DP  RH WIND       PRES   REMARKS
NORFOLK        PTSUNNY   72  56  57 CALM      30.14F
VIRGINIA BEACH MOSUNNY   74  53  48 E9        30.14F
NORFOLK NAVAL  NOT AVBL
WEST POINT*    CLOUDY    74  55  51 CALM      30.16F
SALUDA*        CLOUDY    72  54  53 E7        30.16S
NEWPORT NEWS   PTSUNNY   73  56  54 E9        30.15F
LANGLEY AFB    MOSUNNY   73  54  51 N10       30.14F
FORT EUSTIS    CLOUDY    76  58  54 E9        30.12F
WILLIAMSBURG*  SUNNY     73  61  64 E3        30.15F
HR EXEC AP*    CLOUDY    75  57  53 NE5       30.16F
FRANKLIN*      CLOUDY    72  55  54 NE7       30.15F
US460-WAKEFLD  CLOUDY    73  56  54 CALM      30.15F
$$

VAZ020-022-025-037-045-252000-
WEST CENTRAL AND SOUTHWEST VIRGINIA

CITY           SKY/WX    TMP DP  RH WIND       PRES   REMARKS
STAUNTON*      CLOUDY    62  59  89 CALM      30.19F
WAYNESBORO*    CLOUDY    64  57  79 SE6       30.17F
HOT SPRINGS VA LGT RAIN  60  60 100 S7        30.21F VSB<1/4
LYNCHBURG      CLOUDY    71  58  63 SE6       30.17F
DANVILLE       CLOUDY    70  65  84 VRB3      30.15F
SOUTH BOSTON*  CLOUDY    73  63  71 CALM      30.14F
MARTINSVILLE   CLOUDY    69  65  85 E3        30.18F FOG
ROANOKE        CLOUDY    69  64  84 SE10      30.17F
BLACKSBURG     PTSUNNY   75  66  73 SE7       30.19F
DUBLIN*        CLOUDY    76  65  69 SE3       30.17F
MARION*        PTSUNNY   79  65  62 E3        30.18F
HILLSVILLE*    CLOUDY    73  65  76 S3        30.18F
RICHLANDS*     FAIR      79  63  56 NW5       30.16F
WISE*          PTSUNNY   81  52  36 NW5       30.18F
ABINGDON*      MOSUNNY   86  60  40 NW7       30.12F
$$

MDZ021>025-VAZ099-100-252000-
SOUTHERN MARYLAND AND THE DELMARVA PENINSULA

CITY           SKY/WX    TMP DP  RH WIND       PRES   REMARKS
PATUXENT RIVER MOSUNNY   71  48  43 NE8       30.16F
BAY BRIDGE APT SUNNY     70  48  46 MISG      30.17F
LEONARDTOWN    SUNNY     70  46  43 N3        30.18F
DOVER          SUNNY     69  55  59 VRB1      30.15F
GEORGETOWN     SUNNY     71  46  40 CALM      30.16F
EASTON         MOSUNNY   73  45  35 NW3       30.19F
CAMBRIDGE      SUNNY     70  45  40 CALM      30.15F
SALISBURY      MOSUNNY   73  50  44 VRB6      30.15F
OCEAN CITY     SUNNY     71  52  50 E8        30.16F
WALLOPS ISLAND SUNNY     72  54  53 E9        30.15F
ACCOMACK*      SUNNY     74  49  40 N6        30.15S
$$

NCZ012>017-030>032-252000-
NORTH CENTRAL AND EASTERN NORTH CAROLINA

CITY           SKY/WX    TMP DP  RH WIND       PRES   REMARKS
ROANOKE RAPIDS CLOUDY    70  63  78 CALM      30.15F
RALEIGH        CLOUDY    72  66  81 VRB5      30.14F
ELIZABETH CITY MOSUNNY   75  59  57 NE10      30.14F
AHOSKIE*       SUNNY     71  61  69 E6        30.15F
EDENTON*       CLOUDY    75  57  53 E5        30.15F
CURRITUCK*     PTSUNNY   74  57  56 NE7       30.15F
KILL DEVIL HLS NOT AVBL
MANTEO         MOSUNNY   73  56  57 NE14      30.15S
CAPE HATTERAS  MOSUNNY   76  60  57 NE12G22   30.11F
TARBORO*       CLOUDY    75  65  69 NE8       30.15S
GOLDSBORO      PTSUNNY   75  71  88 NE8       30.10F
WASHINGTON     PTSUNNY   74  63  68 NE6       30.14R
GREENVILLE     CLOUDY    73  64  73 E3        30.14S
NEW BERN       CLOUDY    76  64  66 NE9       30.13S
WILMINGTON     MOSUNNY   81  71  71 E10       30.07F
$$

VAZ048-252000-
ELSEWHERE

CITY           SKY/WX    TMP DP  RH WIND       PRES   REMARKS
HARRISBURG PA  MOSUNNY   71  45  39 W3        30.16F
BALTIMORE      MOSUNNY   71  42  35 SE7       30.16F
ANNAPOLIS      SUNNY     70  47  43 E3        30.17F
ANDREWS AFB    MOSUNNY   71  47  42 VRB5      30.15F
PHILADELPHIA   MOSUNNY   72  41  32 N5        30.15F
HENDERSON NC   PTSUNNY   70  62  76 E3        30.15F
GREENSBORO     CLOUDY    73  69  87 NE9       30.13F
ROCKY MOUNT    CLOUDY    75  66  73 NE9       30.14S
$$

VAZ100-252000-
MARINE

STATION/POSITION TIME  TEMP    WIND        PRES    WAVE   SWELL
                       AIR SEA DIR/SP/G            HT/PER HT/PER
                 (UTC) (F)     (DEG/KT/KT) (MB)    (FT/S) (FT/S)
BRANDYWINE LGT   1800   65      20/  3/  3   N/A
CAPE MAY NJ      1800   70 73  290/  1/  5 1021.3F
LEWES DE         1800   66 72  360/  6/  8 1021.6F
OCEAN-CITY-INLET 1800   69 72   90/  7/ 10 1021.9F
WACHAPREAGUE VA  1800   70 76   80/  7/  9 1021.1F
THOMAS POINT MD  1900   66 76  360/  6/  7 1022.9F
GOOSES REEF MD   1900   67 76   10/  4/  6 1022.1F   1
COVE POINT MD    1800   65      30/  7/  8 1022.7F
SOLOMONS ISLAND  1800   68 77   10/  5/  7   N/A
BISHOPS HEAD MD  1800   69 72   50/  5/  7 1022.0F
PINEY POINT MD   1800          300/  4/  4   N/A
POTOMAC MD       1800   68 77   40/  8/ 10 1021.1F   0
CAMBRIDGE MD     1800   69 74  310/  2/  5 1021.1F
LEWISETTA VA     1800   69 75   70/  3/  5 1021.5F
RAPPAHANNOCK LGT 1800          360/ 10/ 12 1021.9F
STINGRAY PT      1800   69 77  330/  8/ 12 1022.1F   1/ 2
YORK RVR RNG VA  1800   70      60/ 11/ 12 1021.0F
YORKTOWN VA      1800   70 77   80/  9/ 12 1021.1F
JAMESTOWN VA     1800   71 78   70/  4/  8   N/A     0
DOMINION TERM VA 1800   73     110/  4/  9 1021.3F
KIPTOPEKE VA     1800      78   90/  6/  9   N/A
CHES BAY BRIDGE  1800   70 77   10/  8/ 12 1021.1F
CAPE HENRY VA    1800   71      50/  8/ 10   N/A
WILLOUBY STN VA  1800   70      40/  8/ 11   N/A
CAPE HENRY BUOY  1812      76                N/A     4/10   2/11
1ST LANDING BUOY 1900   71 77   90/  4/  8 1020.5F   2/ 4
CAPE CHARLES BUO 1826      77                N/A     4/10   2/11
OFFSHORE WE BUOY 1821      76                N/A     4/10   2/11
64NM E OF VA BCH 1850   70 75   10/ 14/ 16 1020.0F   5/ 8   3/ 8
DUCK PIER NC     1800   70 77   30/ 12/ 15 1020.5F
44056 DUCK FRF   1811      77                N/A     4/11   2/11
OREGON INLET NC  1800   72 78   30/ 12/ 15 1020.4F
HATTERAS NC      1800   74 80   30/ 12/ 18 1019.4F
DIAMOND SHLS NC  1850   74 85   30/ 16/ 21 1019.1F   5/10   3/10
CAPE LOOKOUT NC  1900   76      40/ 17/ 19 1019.0F
$$




USA.gov is the U.S. government's official web portal to all federal, state and local government web resources and services.